Orbital Elements at Epoch 2459000.5 (2020-May-31.0) TDB
Reference: JPL 21 (heliocentric ecliptic J2000)
Element | Value | Uncertainty (1-sigma) | Units |
e | .2732347171501111 | 3.841e-08 | |
a | 2.417998563197296 | 8.6229e-09 | au |
q | 1.757317409712708 | 9.2034e-08 | au |
i | 10.16143735970961 | 5.0131e-06 | deg |
node | 189.5089389760926 | 1.7959e-05 | deg |
peri | 197.1437037828087 | 1.9329e-05 | deg |
M | 158.0623434977654 | 5.9418e-06 | deg |
tp | 2458397.512373351045 (2018-Oct-06.01237335) | 2.2105e-05 | TDB |
period | 1373.353961417716 3.76 | 7.3464e-06 2.011e-08 | d yr |
n | .2621319849897774 | 1.4022e-09 | deg/d |
Q | 3.078679716681884 | 1.0979e-08 | au |
|
| | Orbit Determination Parameters
Additional Information
|